Voltar ao catálogo

CZ-6A DEB

AtivoPO
NORAD 55519·DEBRIS·🇨🇳 China

Lançado Nov 11, 2022 de Taiyuan Satellite Launch Center

Loading…

Próximas Passagens (próximas 24 horas)

TLE

AtualizadoSource: Space-Track

Época: Sep 14, 2026, 18:09 UTC

1 55519U 22151XR  26257.75681051  .00043767  00000-0  33119-2 0  9997
2 55519  98.7646   6.1222 0017930 288.3860  71.5411 15.02038136199181

Acompanhe CZ-6A DEB em tempo real com AllMySat

Download on the App Store